Content
SEND FEEDBACK

Daily
Averages
Monthly
Summary
United States of America

ST. LOUIS, MISSOURI


Home > North America > United States > Missouri
Elevation: 535 feet     Latitude: 38 45N     Longitude: 090 22W

WEATHER
 
SELECT A DAY
Number of Records: 201,199;   Date Range: 1/1/95 - 12/17/14
 
SHARE

PRINT THIS DATA

[ ← Previous Day ]
WEATHER ALMANAC - FEBRUARY 16, 2013
[ Next Day → ]
[ °C ]   °F
Weather ElementAverageHighLow
Temperature26.8 °F37.9 °F (3:54 pm)19.9 °F (6:54 am)
Dewpoint11 °F14 °F (7:54 am)6.1 °F (2:54 pm)
Humidity54.4 %74 % (11:54 pm)28 % (2:54 pm)
Barometer30.25 in30.32 in (8:54 am)30.20 in (2:54 pm)
Wind Speed5.3 mph12.7 mph (11:54 am)
Wind Gust19.6 mph (1:54 pm)
Weather ElementAverage
Visibility10 mi
Wind DirectionSSW (210.4 °)

Weather ElementTotal
Precipitation---
Heating Degree Days36.1 (Base 65)
Averaged from 23 records on February 16, 2013
WEATHER CONDITIONS BREAKOUT
WIND DIRECTION BREAKOUT
WEATHER BY HOUR - FEBRUARY 16, 2013
[ °C ]   °F
Local TimeTemperatureDewpointHumidityBarometerVisibilityWind DirectionWind SpeedGust SpeedPrecipitationEventsConditions
1:54 AM25.0 °F12.9 °F60 %30.27 in10.0 miNW (310°)8.1 mphClear
2:54 AM23.0 °F12.9 °F65 %30.27 in10.0 miWest (280°)4.6 mphClear
3:54 AM23.0 °F12.0 °F63 %30.27 in10.0 miWest (280°)4.6 mphClear
4:54 AM21.0 °F12.0 °F68 %30.28 in10.0 miWest (280°)5.8 mphClear
5:54 AM21.0 °F12.0 °F68 %30.28 in10.0 miWest (280°)4.6 mphClear
6:54 AM19.9 °F12.0 °F71 %30.30 in10.0 miWest (270°)4.6 mphClear
7:54 AM21.9 °F14.0 °F72 %30.31 in10.0 miWNW (300°)5.8 mphClear
8:54 AM24.1 °F12.0 °F60 %30.32 in10.0 miNNW (330°)10.4 mphPartly Cloudy
9:54 AM26.1 °F10.9 °F53 %30.31 in10.0 miNNW (340°)9.2 mphClear
10:54 AM28.9 °F12.0 °F49 %30.31 in10.0 miNNW (330°)5.8 mphClear
11:54 AM32.0 °F9.0 °F38 %30.28 in10.0 miWNW (300°)12.7 mphClear
12:54 PM35.1 °F9.0 °F34 %30.25 in10.0 miWNW (300°)8.1 mphClear
1:54 PM36.0 °F8.1 °F31 %30.22 in10.0 miNNW (330°)10.4 mph19.6 mphClear
2:54 PM37.0 °F6.1 °F28 %30.20 in10.0 miNW (310°)10.4 mph17.3 mphClear
3:54 PM37.9 °F7.0 °F28 %30.20 in10.0 miNNW (330°)9.2 mphClear
4:54 PM36.0 °F6.1 °F29 %30.20 in10.0 miWest (270°)6.9 mphClear
5:54 PM30.9 °F9.0 °F40 %30.21 in10.0 miCalmClear
6:54 PM26.1 °F12.9 °F58 %30.22 in10.0 miCalmClear
7:54 PM25.0 °F12.9 °F60 %30.22 in10.0 miCalmClear
8:54 PM23.0 °F12.0 °F63 %30.23 in10.0 miCalmClear
9:54 PM21.9 °F12.9 °F68 %30.23 in10.0 miCalmClear
10:54 PM21.0 °F12.9 °F71 %30.22 in10.0 miCalmClear
11:54 PM19.9 °F12.9 °F74 %30.21 in10.0 miCalmClear
Hourly data recorded from KSUS, located miles away from St. Louis, Missouri







STORIES FROM OUR PARTNERS